INMARSAT 5-F4 (42698 NORAD) Tracking and Keplerian Element Data

This shows tracking and keplerian element data for the satellite.

Feedback or suggestion? Click here.




ElementValue
Catalog42698
NameINMARSAT 5-F4
Epoch Orbit911
Epoch Day316.83891389
Epoch Year2019
RAAN288.3791
Inclination0.0206
Eccentricity6.56E-05
Argument of Perigee326.5901
Mean Anonmoly155.2446
Mean Motion1.00271601
Decay Rate8.9E-07
L11 42698U 17025A 19316.83891389 .00000089 00000-0 00000-0 0 9990
L22 42698 0.0206 288.3791 0000656 326.5901 155.2446 1.00271601 9116

Live tracking and technical data element details for INMARSAT 5-F4 (NORAD 42698). INMARSAT 5-F4 can be tracked NOW for your location showing map with azimuth and elevation plus other details from your city location.

Track the satellite on the map from your city or location and see movement details for azimuth, elevation, latitude, longitude, range, height, and movement on the map or in text.







IsCatalogInMostPopularTable: catalog: 42698, numindb: 403
Update: records affected: 1



GetName: 42698 INMARSAT 5-F4

Hit Count: updated at: Wed, 13 Nov 2019 17:40:24 GMT